Alexandria, Egypt

6:34 PM EET on April 26, 2017 (GMT +0200)
Alexandria

Weather History for HEAX - January, 2014

Change the Weather History Date:

Friday, January 10, 2014

  Actual Average Record
Temperature  
Mean Temperature 54 °F -  
Max Temperature 66 °F 63 °F 69 °F (1997)
Min Temperature 42 °F 47 °F 37 °F (2017)
Degree Days  
Heating Degree Days 11    
Growing Degree Days 4 (Base 50)    
Moisture  
Dew Point 50 °F    
Average Humidity 77    
Maximum Humidity 100    
Minimum Humidity 51    
Precipitation  
Precipitation 0.00 in 0.06 in - ()
Sea Level Pressure  
Sea Level Pressure 30.10 in    
Wind  
Wind Speed 3 mph ()    
Max Wind Speed 9 mph    
Max Gust Speed -    
Visibility 5.1 miles    
Events Fog    
Averages and records for this station are not official NWS values.
T = Trace of Precipitation, MM = Missing Value Source: Averaged Metar Reports

Daily Weather History Graph

Daily Weather History Graph

Search for Another Location

Airport or City:

Trip Planner

Search our weather history database for the weather conditions in past years. The results will help you decide how hot, cold, wet, or windy it might be!

Date:

Astronomy

Jan. 10, 2014 Rise Set
Actual Time 6:59 AM EET 5:15 PM EET
Civil Twilight 6:33 AM EET 5:42 PM EET
Nautical Twilight 6:03 AM EET 6:12 PM EET
Astronomical Twilight 5:34 AM EET 6:41 PM EET
Moon 1:01 PM EET (1/10) 1:54 AM EET (1/10)
Length of Visible Light 11h 08m
Length of Day
10h 15m
Waxing Gibbous, 72% of the Moon is Illuminated
Jan 10
Waxing Gibbous
Jan 16
Full
Jan 24
Last Quarter
Jan 30
New
Feb 6
First Quarter

Hourly Weather History & Observations

Time (EET) Temp. Dew Point Humidity Pressure Visibility Wind Dir Wind Speed Gust Speed Precip Events Conditions
12:00 AM 50.0 °F 48.2 °F 94% 30.01 in 6.2 mi Calm Calm - N/A   Scattered Clouds
1:00 AM 50.0 °F 48.2 °F 94% 30.01 in 6.2 mi Calm Calm - N/A   Scattered Clouds
2:00 AM 50 °F 49 °F 93% 30.04 in 6 mi Calm Calm - -   Partly Cloudy
2:00 AM 50.0 °F 48.2 °F 94% 30.04 in 6.2 mi Calm Calm - N/A   Scattered Clouds
3:00 AM 50.0 °F 48.2 °F 94% 30.04 in 6.2 mi WSW 2.3 mph - N/A   Scattered Clouds
4:00 AM 50.0 °F 48.2 °F 94% 30.04 in 6.2 mi Calm Calm - N/A   Scattered Clouds
5:00 AM 46 °F 45 °F 95% 30.05 in 4 mi Calm Calm - -   Mist
5:00 AM 46.4 °F 44.6 °F 93% 30.04 in 3.7 mi Calm Calm - N/A   Partly Cloudy
6:00 AM 42.8 °F 42.8 °F 100% 30.04 in 1.9 mi Calm Calm - N/A   Partly Cloudy
7:00 AM 44.6 °F 44.6 °F 100% 30.06 in 0.5 mi Calm Calm - N/A Fog Fog
8:00 AM 47 °F 46 °F 96% 30.08 in 0 mi Calm Calm - - Fog Partial Fog
8:00 AM 48.2 °F 46.4 °F 93% 30.06 in 0.5 mi Calm Calm - N/A Fog Fog
9:00 AM 53.6 °F 51.8 °F 94% 30.09 in 1.9 mi South 3.5 mph - N/A   Scattered Clouds
10:00 AM 59.0 °F 57.2 °F 94% 30.12 in 1.9 mi Calm Calm - N/A   Scattered Clouds
11:00 AM 65 °F 54 °F 58% 30.14 in 6 mi NNW 9.2 mph - -   Partly Cloudy
11:00 AM 64.4 °F 53.6 °F 68% 30.12 in 6.2 mi NNW 9.2 mph - N/A   Scattered Clouds
12:00 PM 66.2 °F 53.6 °F 64% 30.12 in 6.2 mi North 8.1 mph - N/A   Scattered Clouds
1:00 PM 66.2 °F 53.6 °F 64% 30.09 in 6.2 mi North 9.2 mph - N/A   Partly Cloudy
2:00 PM 66 °F 52 °F 51% 30.12 in 6 mi North 9.2 mph - -   Scattered Clouds
2:00 PM 66.2 °F 51.8 °F 60% 30.09 in 6.2 mi North 9.2 mph - N/A   Partly Cloudy
3:00 PM 66.2 °F 53.6 °F 64% 30.09 in 6.2 mi North 9.2 mph - N/A   Partly Cloudy
4:00 PM 64.4 °F 51.8 °F 64% 30.12 in 6.2 mi NNW 8.1 mph - N/A   Partly Cloudy
5:00 PM 63 °F 51 °F 54% 30.14 in 6 mi NNW 6.9 mph - -   Scattered Clouds
5:00 PM 62.6 °F 50.0 °F 63% 30.12 in 6.2 mi NNW 6.9 mph - N/A   Partly Cloudy
6:00 PM 60.8 °F 50.0 °F 68% 30.15 in 6.2 mi NNW 5.8 mph - N/A   Partly Cloudy
7:00 PM 60.8 °F 50.0 °F 68% 30.15 in 6.2 mi North 3.5 mph - N/A   Partly Cloudy
8:00 PM 60 °F 50 °F 60% 30.18 in 6 mi North 5.8 mph - -   Scattered Clouds
8:00 PM 60.8 °F 50.0 °F 68% 30.15 in 6.2 mi North 5.8 mph - N/A   Partly Cloudy
9:00 PM 60.8 °F 50.0 °F 68% 30.18 in 6.2 mi North 5.8 mph - N/A   Partly Cloudy
10:00 PM 60.8 °F 50.0 °F 68% 30.18 in 6.2 mi NNW 5.8 mph - N/A   Partly Cloudy
11:00 PM 60 °F 50 °F 62% 30.21 in 6 mi NW 5.8 mph - -   Scattered Clouds
11:00 PM 60.8 °F 50.0 °F 68% 30.18 in 6.2 mi NW 5.8 mph - N/A   Partly Cloudy